Midland, MI

1:07 PM EDT on July 28, 2017 (GMT -0400)
Barstow

Weather History for KIKW - February, 2013

Change the Weather History Date:

Friday, February 22, 2013

  Actual Average (KMBS) Record (KMBS)
Temperature  
Mean Temperature 26 °F -  
Max Temperature 31 °F 31 °F 64 °F (2017)
Min Temperature 22 °F 18 °F -2 °F (2015)
Degree Days  
Heating Degree Days 38    
Moisture  
Dew Point 24 °F    
Average Humidity 91    
Maximum Humidity 98    
Minimum Humidity 77    
Precipitation  
Precipitation 0.00 in - - ()
Sea Level Pressure  
Sea Level Pressure 29.99 in    
Wind  
Wind Speed 10 mph (East)    
Max Wind Speed 17 mph    
Max Gust Speed 24 mph    
Visibility 6 miles    
Events Snow    
Averages and records for this station are not official NWS values.
T = Trace of Precipitation, MM = Missing Value Source: NWS Daily Summary

Daily Weather History Graph

Daily Weather History Graph

Search for Another Location

Airport or City:

Trip Planner

Search our weather history database for the weather conditions in past years. The results will help you decide how hot, cold, wet, or windy it might be!

Date:

Astronomy

Feb. 22, 2013 Rise Set
Actual Time 7:24 AM EST 6:16 PM EST
Civil Twilight 6:55 AM EST 6:46 PM EST
Nautical Twilight 6:22 AM EST 7:19 PM EST
Astronomical Twilight 5:49 AM EST 7:52 PM EST
Moon 3:23 PM EST (2/22) 5:13 AM EST (2/22)
Length of Visible Light 11h 50m
Length of Day
10h 52m
Waxing Gibbous, 90% of the Moon is Illuminated
Feb 22
Waxing Gibbous
Feb 25
Full
Mar 4
Last Quarter
Mar 11
New
Mar 19
First Quarter

Hourly Weather History & Observations

Time (EST) Temp. Windchill Dew Point Humidity Pressure Visibility Wind Dir Wind Speed Gust Speed Precip Events Conditions
12:13 AM 23.7 °F 13.3 °F 22.1 °F 94% 30.26 in 10.0 mi East 10.4 mph - N/A   Overcast
12:34 AM 23.9 °F 12.3 °F 22.1 °F 93% 30.25 in 10.0 mi East 12.7 mph 17.3 mph N/A   Overcast
12:54 AM 23.9 °F 14.2 °F 22.5 °F 94% 30.23 in 10.0 mi East 9.2 mph 12.7 mph N/A   Overcast
1:14 AM 24.3 °F 15.4 °F 22.8 °F 94% 30.25 in 10.0 mi East 8.1 mph 17.3 mph N/A   Overcast
1:34 AM 24.3 °F 13.9 °F 23.0 °F 95% 30.25 in 7.0 mi East 10.4 mph - N/A   Overcast
1:53 AM 24.4 °F 13.5 °F 23.4 °F 96% 30.25 in 7.0 mi East 11.5 mph - N/A   Overcast
2:14 AM 24.8 °F 12.9 °F 23.7 °F 96% 30.24 in 7.0 mi ENE 13.8 mph 17.3 mph N/A   Overcast
2:34 AM 24.8 °F 12.9 °F 23.7 °F 96% 30.22 in 7.0 mi East 13.8 mph 19.6 mph N/A   Overcast
2:53 AM 24.8 °F 11.5 °F 23.7 °F 96% 30.21 in 10.0 mi East 17.3 mph - N/A   Overcast
3:14 AM 23.9 °F 12.9 °F 21.2 °F 89% 30.21 in 10.0 mi East 11.5 mph - N/A   Overcast
3:34 AM 23.0 °F 10.6 °F 19.4 °F 86% 30.19 in 10.0 mi East 13.8 mph - N/A   Overcast
3:54 AM 23.0 °F 10.6 °F 19.2 °F 85% 30.17 in 10.0 mi East 13.8 mph 18.4 mph N/A   Overcast
4:14 AM 23.0 °F 11.1 °F 19.0 °F 85% 30.15 in 10.0 mi ENE 12.7 mph - N/A   Mostly Cloudy
4:34 AM 23.0 °F 10.6 °F 18.9 °F 84% 30.14 in 10.0 mi ENE 13.8 mph 19.6 mph N/A   Mostly Cloudy
4:54 AM 23.0 °F 10.1 °F 18.9 °F 84% 30.13 in 10.0 mi East 15.0 mph 19.6 mph N/A   Mostly Cloudy
5:13 AM 23.5 °F 11.3 °F 18.9 °F 82% 30.13 in 10.0 mi ENE 13.8 mph - N/A   Overcast
5:34 AM 23.5 °F 13.0 °F 19.0 °F 83% 30.14 in 10.0 mi East 10.4 mph 21.9 mph N/A   Overcast
5:54 AM 23.4 °F 11.6 °F 18.9 °F 83% 30.14 in 10.0 mi ENE 12.7 mph - N/A   Overcast
6:14 AM 23.5 °F 13.0 °F 18.5 °F 81% 30.14 in 10.0 mi East 10.4 mph - N/A   Overcast
6:34 AM 23.7 °F 14.0 °F 18.3 °F 80% 30.14 in 10.0 mi East 9.2 mph - N/A   Overcast
6:53 AM 23.7 °F 12.6 °F 18.0 °F 79% 30.12 in 10.0 mi East 11.5 mph - N/A   Overcast
7:14 AM 23.5 °F 11.3 °F 17.4 °F 77% 30.09 in 10.0 mi ENE 13.8 mph 20.7 mph N/A Snow Light Snow
7:34 AM 22.6 °F 9.6 °F 18.9 °F 85% 30.09 in 0.8 mi ENE 15.0 mph - N/A Snow Snow
7:54 AM 22.1 °F 9.5 °F 19.8 °F 91% 30.08 in 0.2 mi East 13.8 mph - N/A Snow Snow
8:14 AM 22.1 °F 9.5 °F 20.3 °F 93% 30.06 in 0.2 mi ENE 13.8 mph - N/A Snow Snow
8:34 AM 22.3 °F 8.2 °F 20.3 °F 92% 30.04 in 0.2 mi ENE 17.3 mph - N/A Snow Heavy Snow
8:54 AM 22.6 °F 8.7 °F 20.7 °F 92% 30.02 in 0.2 mi ENE 17.3 mph 20.7 mph N/A Snow Snow
9:14 AM 23.0 °F 9.2 °F 21.0 °F 92% 30.00 in 0.2 mi ENE 17.3 mph 24.2 mph N/A Snow Snow
9:34 AM 23.9 °F 11.2 °F 21.4 °F 90% 30.00 in 0.5 mi East 15.0 mph - N/A Snow Light Snow
9:54 AM 24.3 °F 13.3 °F 22.1 °F 91% 29.99 in 0.2 mi ENE 11.5 mph - N/A Snow Snow
10:14 AM 24.8 °F 13.4 °F 22.8 °F 92% 29.98 in 0.5 mi East 12.7 mph 21.9 mph N/A Snow Snow
10:34 AM 24.8 °F 14.0 °F 22.8 °F 92% 29.97 in 0.5 mi ENE 11.5 mph 17.3 mph N/A Snow Snow
10:54 AM 25.3 °F 13.6 °F 23.0 °F 91% 29.96 in 0.2 mi ENE 13.8 mph - N/A Snow Snow
11:14 AM 25.7 °F 15.1 °F 23.0 °F 89% 29.96 in 1.0 mi East 11.5 mph 17.3 mph N/A Snow Light Snow
11:34 AM 25.7 °F 14.6 °F 23.0 °F 89% 29.95 in 1.2 mi East 12.7 mph 18.4 mph N/A Snow Light Snow
12:14 PM 26.1 °F 15.6 °F 22.6 °F 87% 29.94 in 10.0 mi East 11.5 mph 18.4 mph N/A   Overcast
12:34 PM 26.4 °F 17.3 °F 22.6 °F 86% 29.93 in 10.0 mi East 9.2 mph - N/A   Overcast
12:54 PM 26.6 °F 17.5 °F 22.6 °F 85% 29.92 in 10.0 mi East 9.2 mph - N/A   Overcast
1:14 PM 26.6 °F 17.5 °F 22.8 °F 86% 29.92 in 10.0 mi East 9.2 mph - N/A   Overcast
1:34 PM 27.3 °F 18.4 °F 23.0 °F 84% 29.91 in 10.0 mi East 9.2 mph - N/A   Overcast
1:54 PM 27.3 °F 19.1 °F 23.0 °F 84% 29.90 in 10.0 mi East 8.1 mph - N/A   Overcast
2:14 PM 27.5 °F 21.1 °F 23.4 °F 84% 29.89 in 10.0 mi East 5.8 mph - N/A   Overcast
2:34 PM 27.9 °F 22.6 °F 23.4 °F 83% 29.89 in 10.0 mi East 4.6 mph - N/A   Overcast
2:54 PM 27.9 °F 21.5 °F 23.5 °F 84% 29.89 in 7.0 mi ENE 5.8 mph - N/A   Overcast
3:14 PM 27.7 °F 21.3 °F 24.3 °F 87% 29.88 in 4.0 mi East 5.8 mph - N/A   Overcast
3:34 PM 27.9 °F 22.6 °F 24.8 °F 88% 29.88 in 4.0 mi East 4.6 mph - N/A   Overcast
3:54 PM 28.0 °F 20.0 °F 25.3 °F 90% 29.87 in 4.0 mi ENE 8.1 mph - N/A   Overcast
4:15 PM 28.2 °F 21.0 °F 25.7 °F 90% 29.85 in 5.0 mi ENE 6.9 mph - N/A   Overcast
4:34 PM 28.4 °F 24.6 °F 26.1 °F 91% 29.87 in 5.0 mi East 3.5 mph - N/A   Overcast
4:54 PM 28.8 °F - 26.4 °F 91% 29.86 in 4.0 mi Calm Calm - N/A   Overcast
5:15 PM 28.8 °F 25.0 °F 27.0 °F 93% 29.86 in 3.0 mi East 3.5 mph - N/A Snow Light Snow
5:34 PM 28.8 °F - 27.3 °F 94% 29.86 in 2.0 mi Calm Calm - N/A Snow Light Snow
5:54 PM 28.8 °F - 27.5 °F 95% 29.86 in 1.0 mi Calm Calm - N/A Snow Light Snow
6:14 PM 28.6 °F - 27.7 °F 96% 29.86 in 1.2 mi Calm Calm - N/A Snow Light Snow
6:34 PM 28.9 °F - 28.0 °F 96% 29.87 in 2.0 mi Calm Calm - N/A Snow Light Snow
6:55 PM 28.9 °F - 28.4 °F 98% 29.86 in 2.5 mi Calm Calm - N/A Snow Light Snow
7:14 PM 29.3 °F - 28.8 °F 98% 29.87 in 4.0 mi Calm Calm - N/A Snow Light Snow
7:34 PM 28.9 °F - 28.2 °F 97% 29.86 in 4.0 mi Calm Calm - N/A Snow Light Snow
7:55 PM 29.8 °F - 29.3 °F 98% 29.87 in 3.0 mi Calm Calm - N/A Snow Light Snow
8:14 PM 30.0 °F - 29.5 °F 98% 29.86 in 3.0 mi Calm Calm - N/A Snow Light Snow
8:34 PM 30.2 °F - 29.5 °F 97% 29.85 in 1.8 mi Calm Calm - N/A Snow Light Snow
8:55 PM 30.2 °F - 29.3 °F 96% 29.85 in 2.0 mi Calm Calm - N/A Snow Light Snow
9:14 PM 30.0 °F - 29.3 °F 97% 29.85 in 3.0 mi Calm Calm - N/A Snow Light Snow
9:34 PM 30.2 °F - 29.3 °F 96% 29.84 in 4.0 mi Calm Calm - N/A Snow Light Snow
9:55 PM 30.6 °F 27.1 °F 29.7 °F 96% 29.84 in 5.0 mi SSE 3.5 mph - N/A Snow Light Snow
10:14 PM 30.7 °F - 29.8 °F 96% 29.84 in 4.0 mi Calm Calm - N/A Snow Light Snow
10:34 PM 30.9 °F 27.5 °F 30.0 °F 96% 29.84 in 4.0 mi SSE 3.5 mph - N/A Snow Light Snow
10:55 PM 30.9 °F 27.5 °F 30.0 °F 96% 29.83 in 5.0 mi South 3.5 mph - N/A   Overcast
11:14 PM 31.1 °F 27.7 °F 30.2 °F 96% 29.83 in 5.0 mi South 3.5 mph - N/A   Overcast
11:34 PM 31.1 °F 26.4 °F 30.2 °F 96% 29.82 in 5.0 mi South 4.6 mph - N/A   Overcast
11:54 PM 31.3 °F 25.6 °F 30.6 °F 97% 29.82 in 4.0 mi South 5.8 mph - N/A Snow Light Snow